Regional Weather Roundup
Issued by NWS

Home | Current Version | Previous Version | Graphics & Text | Print | Product List | Glossary On
Versions: 1 2 3 4 5 6 7 8 9 10 11 12 13 14 15 16 17 18 19 20 21 22 23 24 25 26 27 28 29 30 31 32 33 34 35 36 37 38 39 40 41 42 43 44 45 46 47 48 49 50
000
ASUS43 KTOP 260208
RWRKS

WEATHER ROUNDUP FOR KANSAS
NATIONAL WEATHER SERVICE GOODLAND KS
900 PM CDT SAT MAR 25 2017

NOTE:  "FAIR" INDICATES FEW OR NO CLOUDS BELOW 12,000 FEET WITH NO
SIGNIFICANT WEATHER AND/OR OBSTRUCTIONS TO VISIBILITY.

KSZ001>006-013>018-027>032-041>047-260300-
NORTHWEST KANSAS

CITY           SKY/WX    TMP DP  RH WIND       PRES   REMARKS
GOODLAND       CLOUDY    45  36  70 SE7       29.88R
HAYS             N/A     47  39  74 NE8       29.92S
HILL CITY      CLOUDY    41  38  89 E3        29.92S
RUSSELL        CLOUDY    42  37  82 E6        29.91F
$$

KSZ061>065-074>080-084>089-260300-
SOUTHWEST KANSAS

CITY           SKY/WX    TMP DP  RH WIND       PRES   REMARKS
DODGE CITY     CLOUDY    47  40  76 E9        29.90R
ELKHART          N/A     50  28  42 E10         N/A
GARDEN CITY    PTCLDY    52  37  56 E10       29.89R
GREAT BEND     CLEAR     42  38  85 E7        29.92S
LIBERAL        PTCLDY    55  23  28 CALM      29.90S
PRATT          CLEAR     42  37  79 E7        29.93R
$$

KSZ066>073-081>083-090>101-260300-
SOUTHEAST KANSAS

CITY           SKY/WX    TMP DP  RH WIND       PRES   REMARKS
CHANUTE        CLOUDY    47  45  93 W9        29.92R
COFFEYVILLE    CLOUDY    48  43  82 W6        29.94R
HUTCHINSON     CLOUDY    45  40  82 N3        29.93R
MEDICINE LODGE   N/A     45  38  76 E10       29.91R
NEWTON         CLOUDY    42  41  96 N7        29.94R
PARSONS        CLOUDY    48  44  86 NW8       29.93S
WICHITA INTL   CLOUDY    45  41  86 NW8       29.93S
WICHITA JABRA  CLOUDY    45  41  86 NW6       29.93R
WICHITA MCCONL CLOUDY    45  40  83 N8        29.93R
WINFIELD       CLOUDY    47  42  83 NW3       29.95S
$$

KSZ007>012-019>026-033>040-048>060-102>105-260300-
NORTHEAST KANSAS

CITY           SKY/WX    TMP DP  RH WIND       PRES   REMARKS
CONCORDIA      CLOUDY    41  41 100 NE9       29.93S FOG
EMPORIA        CLOUDY    45  44  97 N8        29.91S
LAWRENCE       CLOUDY    46  43  89 NW12      29.92R
MANHATTAN      CLOUDY    45  43  93 N5        29.93S
MARYSVILLE     LGT RAIN  41  41 100 NW9       29.94R
OLATHE IND     CLOUDY    46  44  93 NW13      29.90R
OLATHE EXE     CLOUDY    47  46  97 NW14      29.88R
SALINA         CLOUDY    45  40  82 N9        29.94S
TOPEKA BILLARD CLOUDY    46  43  89 N8        29.91R
TOPEKA FORBES  CLOUDY    47  43  86 N8        29.91R
$$



USA.gov is the U.S. government's official web portal to all federal, state and local government web resources and services.